User: anonymous   Login
Location: Alma
(34.4195°N, 97.6123°W)
Time: 05:46:22
(UTC+00:00)
Language:

Hubble Space Telescope - Orbit

View from above orbital plane
View from above orbital plane
View from above satellite
View from above satellite

Ground track
Ground track

The orbit data is extracted from the following two-line orbital elements,

1 20580U 90037B   24165.89811572  .00006233  00000-0  29122-3 0  9996
2 20580  28.4697   7.1686 0002812   6.5499 353.5130 15.17718728676531
Epoch (UTC): 13 June 2024 21:33:17
Eccentricity: 0.0002812
inclination: 28.4697°
perigee height: 511 km
apogee height: 514 km
right ascension of ascending node: 7.1686°
argument of perigee: 6.5499°
revolutions per day: 15.17718728
mean anomaly at epoch: 353.5130°
orbit number at epoch: 67653

The dashed part of the orbit path shows where the satellite is in the earth's shadow,  

DLR